Regional Weather Roundup
Issued by NWS

Home | Current Version | Previous Version | Text Only | Print | Product List | Glossary Off
Versions: 1 2 3 4 5 6 7 8 9 10 11 12 13 14 15 16 17 18 19 20 21 22 23 24 25 26 27 28 29 30 31 32 33 34 35 36 37 38 39 40 41 42 43 44 45 46 47 48 49 50

000
ASUS43 KLMK 030802
RWRKY
KENTUCKY REGIONAL WEATHER ROUNDUP
NATIONAL WEATHER SERVICE LOUISVILLE KY
400 AM EDT THU SEP 03 2015

NOTE "FAIR" INDICATES FEW OR NO CLOUDS BELOW 12,000 FEET
WITH NO SIGNIFICANT WEATHER AND/OR OBSTRUCTIONS TO VISIBILITY.

KYZ001>023-026-027-061>063-070>075-030900-
WESTERN AND SOUTH CENTRAL KENTUCKY

CITY           SKY/WX    TMP DP  RH WIND       PRES   REMARKS
PADUCAH        CLEAR     68  66  93 CALM      29.99S FOG
HENDERSON      CLEAR     66  63  88 CALM      29.99S
OWENSBORO      CLEAR     71  68  90 CALM      30.01S
HOPKINSVILLE   CLEAR     72  67  85 E1        30.00F
BOWLING GREEN  CLEAR     69  67  93 CALM      30.02S
GLASGOW        NOT AVBL
$$

KYZ024-025-028>034-038-045-046-053-030900-
NORTH CENTRAL KENTUCKY

CITY           SKY/WX    TMP DP  RH WIND       PRES   REMARKS
LOUISVILLE/SDF CLEAR     74  69  85 SE5       30.01S
LOUISVILLE/LOU CLEAR     72  69  90 CALM      30.02S FOG
FORT KNOX      FOG       66  64  94 CALM      30.01S VSB 1
$$

KYZ035>037-039>044-047>052-055>060-089>105-030900-
NORTHEAST KENTUCKY

CITY           SKY/WX    TMP DP  RH WIND       PRES   REMARKS
LEXINGTON      CLEAR     67  65  93 S5        30.03F FOG
COVINGTON      PTCLDY    69  66  90 CALM      30.02S
FRANKFORT      CLEAR     68  65  90 CALM      30.02S FOG
$$

KYZ054-064>069-076>088-106>120-030900-
SOUTHEAST KENTUCKY

CITY           SKY/WX    TMP DP  RH WIND       PRES   REMARKS
JACKSON        CLEAR     71  66  84 CALM      30.05S
LONDON         PTCLDY    67  63  87 CALM      30.04F FOG
SOMERSET       NOT AVBL
MIDDLESBORO    MOCLDY    65  65  99 CALM      30.07R
MONTICELLO     SUNNY     63  63 100 CALM      30.07S FOG
$$




USA.gov is the U.S. government's official web portal to all federal, state and local government web resources and services.